Time,TemperatureF,DewpointF,PressureIn,WindDirection,WindDirectionDegrees,WindSpeedMPH,WindSpeedGustMPH,Humidity,HourlyPrecipIn,Conditions,Clouds,dailyrainin,SoftwareType,DateUTC
2013-07-05 00:02:00,76.3,68.6,30.00,WSW,248,3.8,3.8,77,0.00,,---,0.00,VWS V14.00,2013-07-05 04:02:00,
2013-07-05 00:04:00,76.3,68.2,30.00,WSW,248,2.7,2.7,76,0.00,,---,0.00,VWS V14.00,2013-07-05 04:04:00,
2013-07-05 00:09:00,76.1,68.4,30.00,West,270,2.5,3.6,77,0.00,,---,0.00,VWS V14.00,2013-07-05 04:09:00,
2013-07-05 00:10:00,76.1,68.4,30.00,West,270,2.5,2.5,77,0.00,,---,0.00,VWS V14.00,2013-07-05 04:10:00,
2013-07-05 00:15:00,76.1,68.4,30.00,WNW,292,2.7,2.7,77,0.00,,---,0.00,VWS V14.00,2013-07-05 04:15:00,
2013-07-05 00:20:00,75.9,68.2,30.00,SSW,202,1.6,3.1,77,0.00,,---,0.00,VWS V14.00,2013-07-05 04:20:00,
2013-07-05 00:26:00,75.9,68.2,30.00,West,270,4.3,4.3,77,0.00,,---,0.00,VWS V14.00,2013-07-05 04:26:00,
2013-07-05 00:31:00,75.7,68.4,30.00,WSW,248,4.3,4.3,78,0.00,,---,0.00,VWS V14.00,2013-07-05 04:31:00,
2013-07-05 00:36:00,75.6,67.8,30.00,WSW,248,4.0,4.0,77,0.00,,---,0.00,VWS V14.00,2013-07-05 04:36:00,
2013-07-05 00:42:00,75.6,68.2,30.00,WSW,248,4.0,4.0,78,0.00,,---,0.00,VWS V14.00,2013-07-05 04:42:00,
2013-07-05 00:47:00,75.4,67.7,30.00,West,270,7.4,7.4,77,0.00,,---,0.00,VWS V14.00,2013-07-05 04:47:00,
2013-07-05 00:52:00,75.4,68.1,30.00,WSW,248,3.6,3.8,78,0.00,,---,0.00,VWS V14.00,2013-07-05 04:52:00,
2013-07-05 00:58:00,75.2,67.9,30.00,SW,225,4.7,4.7,78,0.00,,---,0.00,VWS V14.00,2013-07-05 04:58:00,
2013-07-05 01:03:00,75.2,67.9,30.00,WSW,248,3.4,3.6,78,0.00,,---,0.00,VWS V14.00,2013-07-05 05:03:00,
2013-07-05 01:08:00,75.0,67.7,30.00,West,270,2.9,3.8,78,0.00,,---,0.00,VWS V14.00,2013-07-05 05:08:00,
2013-07-05 01:13:00,75.0,68.1,30.00,WSW,248,2.9,5.8,79,0.00,,---,0.00,VWS V14.00,2013-07-05 05:13:00,
2013-07-05 01:19:00,75.0,68.1,30.03,WNW,292,5.8,5.8,79,0.00,,---,0.00,VWS V14.00,2013-07-05 05:19:00,
2013-07-05 01:26:00,74.8,67.9,30.03,WSW,248,2.7,4.9,79,0.00,,---,0.00,VWS V14.00,2013-07-05 05:26:00,
2013-07-05 01:31:00,74.7,67.7,30.03,NNW,338,4.0,4.0,79,0.00,,---,0.00,VWS V14.00,2013-07-05 05:31:00,
2013-07-05 01:37:00,74.7,67.7,30.03,West,270,4.0,4.0,79,0.00,,---,0.00,VWS V14.00,2013-07-05 05:37:00,
2013-07-05 01:43:00,74.5,67.6,30.03,WSW,248,2.7,4.7,79,0.00,,---,0.00,VWS V14.00,2013-07-05 05:43:00,
2013-07-05 01:48:00,74.5,67.9,30.00,WSW,248,2.9,6.5,80,0.00,,---,0.00,VWS V14.00,2013-07-05 05:48:00,
2013-07-05 01:54:00,74.5,67.9,30.00,WSW,248,3.6,3.6,80,0.00,,---,0.00,VWS V14.00,2013-07-05 05:54:00,
2013-07-05 01:59:00,74.3,67.7,30.00,West,270,8.1,8.1,80,0.00,,---,0.00,VWS V14.00,2013-07-05 05:59:00,
2013-07-05 02:05:00,74.3,67.7,30.00,WSW,248,2.0,2.0,80,0.00,,---,0.00,VWS V14.00,2013-07-05 06:05:00,
2013-07-05 02:10:00,74.3,67.7,30.00,WSW,248,3.1,3.1,80,0.00,,---,0.00,VWS V14.00,2013-07-05 06:10:00,
2013-07-05 02:15:00,74.3,67.7,30.00,WNW,292,6.0,6.0,80,0.00,,---,0.00,VWS V14.00,2013-07-05 06:15:00,
2013-07-05 02:21:00,74.3,68.1,30.00,WNW,292,5.6,5.6,81,0.00,,---,0.00,VWS V14.00,2013-07-05 06:21:00,
2013-07-05 02:26:00,74.1,67.9,30.00,West,270,5.4,5.4,81,0.00,,---,0.00,VWS V14.00,2013-07-05 06:26:00,
2013-07-05 02:31:00,74.1,67.9,30.00,West,270,2.5,4.0,81,0.00,,---,0.00,VWS V14.00,2013-07-05 06:31:00,
2013-07-05 02:36:00,74.1,67.9,30.00,WSW,248,3.6,4.7,81,0.00,,---,0.00,VWS V14.00,2013-07-05 06:36:00,
2013-07-05 02:42:00,74.1,67.9,30.00,WNW,292,5.4,5.4,81,0.00,,---,0.00,VWS V14.00,2013-07-05 06:42:00,
2013-07-05 02:47:00,74.1,68.3,30.00,WNW,292,6.5,6.5,82,0.00,,---,0.00,VWS V14.00,2013-07-05 06:47:00,
2013-07-05 02:54:00,74.1,68.3,30.00,West,270,4.9,6.0,82,0.00,,---,0.00,VWS V14.00,2013-07-05 06:54:00,
2013-07-05 02:59:00,74.1,68.3,30.00,WNW,292,4.3,4.3,82,0.00,,---,0.00,VWS V14.00,2013-07-05 06:59:00,
2013-07-05 03:04:00,74.1,68.3,30.00,WSW,248,3.8,4.0,82,0.00,,---,0.00,VWS V14.00,2013-07-05 07:04:00,
2013-07-05 03:10:00,74.1,68.3,30.00,West,270,5.8,5.8,82,0.00,,---,0.00,VWS V14.00,2013-07-05 07:10:00,
2013-07-05 03:15:00,74.1,68.3,30.00,West,270,3.1,3.1,82,0.00,,---,0.00,VWS V14.00,2013-07-05 07:15:00,
2013-07-05 03:21:00,74.1,68.3,30.00,WNW,292,4.9,4.9,82,0.00,,---,0.00,VWS V14.00,2013-07-05 07:21:00,
2013-07-05 03:26:00,74.1,68.6,30.00,WSW,248,4.3,4.7,83,0.00,,---,0.00,VWS V14.00,2013-07-05 07:26:00,
2013-07-05 03:32:00,73.9,68.5,30.00,WSW,248,6.3,6.3,83,0.00,,---,0.00,VWS V14.00,2013-07-05 07:32:00,
2013-07-05 03:39:00,73.9,68.5,30.00,WSW,248,5.6,6.5,83,0.00,,---,0.00,VWS V14.00,2013-07-05 07:39:00,
2013-07-05 03:44:00,73.9,68.8,30.00,NNW,338,3.8,3.8,84,0.00,,---,0.00,VWS V14.00,2013-07-05 07:44:00,
2013-07-05 03:49:00,73.9,68.8,30.00,SW,225,5.4,5.4,84,0.00,,---,0.00,VWS V14.00,2013-07-05 07:49:00,
2013-07-05 03:54:00,73.9,68.8,30.00,WSW,248,8.1,8.1,84,0.00,,---,0.00,VWS V14.00,2013-07-05 07:54:00,
2013-07-05 04:00:00,73.9,68.8,30.00,NW,315,6.3,7.4,84,0.00,,---,0.00,VWS V14.00,2013-07-05 08:00:00,
2013-07-05 04:07:00,73.8,69.0,30.00,SW,225,3.6,3.6,85,0.00,,---,0.00,VWS V14.00,2013-07-05 08:07:00,
2013-07-05 04:12:00,73.8,69.0,30.00,WSW,248,6.0,6.0,85,0.00,,---,0.00,VWS V14.00,2013-07-05 08:12:00,
2013-07-05 04:18:00,73.8,69.0,30.00,WSW,248,4.3,4.3,85,0.00,,---,0.00,VWS V14.00,2013-07-05 08:18:00,
2013-07-05 04:24:00,73.6,68.8,30.00,SSW,202,3.6,3.6,85,0.00,,---,0.00,VWS V14.00,2013-07-05 08:24:00,
2013-07-05 04:29:00,73.6,69.1,30.00,WSW,248,3.8,5.8,86,0.00,,---,0.00,VWS V14.00,2013-07-05 08:29:00,
2013-07-05 04:35:00,73.6,69.1,30.00,WNW,292,6.3,6.3,86,0.00,,---,0.00,VWS V14.00,2013-07-05 08:35:00,
2013-07-05 04:40:00,73.4,69.0,30.00,West,270,4.3,4.3,86,0.00,,---,0.00,VWS V14.00,2013-07-05 08:40:00,
2013-07-05 04:45:00,73.4,69.0,30.00,WSW,248,4.9,7.2,86,0.00,,---,0.00,VWS V14.00,2013-07-05 08:45:00,
2013-07-05 04:51:00,73.4,69.0,30.00,WNW,292,5.4,5.4,86,0.00,,---,0.00,VWS V14.00,2013-07-05 08:51:00,
2013-07-05 04:57:00,73.2,69.1,30.00,NW,315,2.5,6.3,87,0.00,,---,0.00,VWS V14.00,2013-07-05 08:57:00,
2013-07-05 05:03:00,73.2,69.1,30.00,WSW,248,3.4,3.4,87,0.00,,---,0.00,VWS V14.00,2013-07-05 09:03:00,
2013-07-05 05:10:00,73.2,69.1,30.00,West,270,4.9,4.9,87,0.00,,---,0.00,VWS V14.00,2013-07-05 09:10:00,
2013-07-05 05:16:00,73.0,68.9,30.00,WNW,292,3.4,3.4,87,0.00,,---,0.00,VWS V14.00,2013-07-05 09:16:00,
2013-07-05 05:22:00,73.0,68.9,30.00,WSW,248,3.6,3.6,87,0.00,,---,0.00,VWS V14.00,2013-07-05 09:22:00,
2013-07-05 05:27:00,73.0,68.9,30.00,WSW,248,3.8,3.8,87,0.00,,---,0.00,VWS V14.00,2013-07-05 09:27:00,
2013-07-05 05:32:00,72.9,69.1,30.00,West,270,2.5,3.8,88,0.00,,---,0.00,VWS V14.00,2013-07-05 09:32:00,
2013-07-05 05:39:00,72.9,69.1,30.00,WNW,292,3.4,3.4,88,0.00,,---,0.00,VWS V14.00,2013-07-05 09:39:00,
2013-07-05 05:44:00,72.9,69.1,30.00,WSW,248,3.1,3.1,88,0.00,,---,0.00,VWS V14.00,2013-07-05 09:44:00,
2013-07-05 05:50:00,72.9,69.1,30.00,WSW,248,2.9,2.9,88,0.00,,---,0.00,VWS V14.00,2013-07-05 09:50:00,
2013-07-05 05:56:00,72.9,69.1,30.00,West,270,1.6,4.3,88,0.00,,---,0.00,VWS V14.00,2013-07-05 09:56:00,
2013-07-05 06:02:00,72.9,69.1,30.00,WSW,248,1.3,1.3,88,0.00,,---,0.00,VWS V14.00,2013-07-05 10:02:00,
2013-07-05 06:09:00,72.9,69.1,30.00,West,270,2.0,3.8,88,0.00,,---,0.00,VWS V14.00,2013-07-05 10:09:00,
2013-07-05 06:14:00,72.9,69.4,30.00,WNW,292,1.1,2.7,89,0.00,,---,0.00,VWS V14.00,2013-07-05 10:14:00,
2013-07-05 06:20:00,73.0,69.6,30.00,SSW,202,4.0,5.6,89,0.00,,---,0.00,VWS V14.00,2013-07-05 10:20:00,
2013-07-05 06:26:00,73.2,69.8,30.00,WSW,248,2.9,2.9,89,0.00,,---,0.00,VWS V14.00,2013-07-05 10:26:00,
2013-07-05 06:32:00,73.2,69.8,30.00,NNW,338,2.2,2.2,89,0.00,,---,0.00,VWS V14.00,2013-07-05 10:32:00,
2013-07-05 06:37:00,73.4,69.6,30.00,WSW,248,2.7,2.7,88,0.00,,---,0.00,VWS V14.00,2013-07-05 10:37:00,
2013-07-05 06:42:00,73.4,69.6,30.00,WSW,248,2.5,3.1,88,0.00,,---,0.00,VWS V14.00,2013-07-05 10:42:00,
2013-07-05 06:49:00,73.6,69.8,30.03,West,270,3.8,4.3,88,0.00,,---,0.00,VWS V14.00,2013-07-05 10:49:00,
2013-07-05 06:54:00,73.8,70.0,30.03,WSW,248,3.6,6.3,88,0.00,,---,0.00,VWS V14.00,2013-07-05 10:54:00,
2013-07-05 07:00:00,73.9,70.2,30.03,West,270,4.3,4.3,88,0.00,,---,0.00,VWS V14.00,2013-07-05 11:00:00,
2013-07-05 07:05:00,74.1,70.7,30.03,WSW,248,4.0,4.0,89,0.00,,---,0.00,VWS V14.00,2013-07-05 11:05:00,
2013-07-05 07:12:00,74.1,70.7,30.03,West,270,5.6,5.6,89,0.00,,---,0.00,VWS V14.00,2013-07-05 11:12:00,
2013-07-05 07:17:00,74.7,70.9,30.03,NW,315,5.8,5.8,88,0.00,,---,0.00,VWS V14.00,2013-07-05 11:17:00,
2013-07-05 07:23:00,74.7,70.9,30.03,West,270,4.9,4.9,88,0.00,,---,0.00,VWS V14.00,2013-07-05 11:23:00,
2013-07-05 07:28:00,75.0,71.6,30.03,NNW,338,2.7,2.7,89,0.00,,---,0.00,VWS V14.00,2013-07-05 11:28:00,
2013-07-05 07:34:00,75.2,71.7,30.03,WNW,292,4.7,4.7,89,0.00,,---,0.00,VWS V14.00,2013-07-05 11:34:00,
2013-07-05 07:40:00,75.6,71.8,30.03,NW,315,5.6,7.2,88,0.00,,---,0.00,VWS V14.00,2013-07-05 11:40:00,
2013-07-05 07:46:00,75.7,71.9,30.03,SW,225,3.1,4.7,88,0.00,,---,0.00,VWS V14.00,2013-07-05 11:46:00,
2013-07-05 07:53:00,76.1,72.3,30.03,WNW,292,5.4,5.4,88,0.00,,---,0.00,VWS V14.00,2013-07-05 11:53:00,
2013-07-05 07:59:00,76.3,72.5,30.03,WNW,292,5.6,6.5,88,0.00,,---,0.00,VWS V14.00,2013-07-05 11:59:00,
2013-07-05 08:06:00,76.8,73.0,30.03,SW,225,5.8,6.3,88,0.00,,---,0.00,VWS V14.00,2013-07-05 12:06:00,
2013-07-05 08:13:00,77.4,73.2,30.03,WNW,292,4.7,6.5,87,0.00,,---,0.00,VWS V14.00,2013-07-05 12:13:00,
2013-07-05 08:18:00,77.5,73.0,30.03,WNW,292,7.6,7.6,86,0.00,,---,0.00,VWS V14.00,2013-07-05 12:18:00,
2013-07-05 08:24:00,77.7,73.2,30.03,NW,315,5.4,5.4,86,0.00,,---,0.00,VWS V14.00,2013-07-05 12:24:00,
2013-07-05 08:30:00,78.1,73.2,30.03,West,270,3.6,4.9,85,0.00,,---,0.00,VWS V14.00,2013-07-05 12:30:00,
2013-07-05 08:35:00,78.4,73.2,30.03,WNW,292,5.8,5.8,84,0.00,,---,0.00,VWS V14.00,2013-07-05 12:35:00,
2013-07-05 08:41:00,78.6,73.4,30.03,WSW,248,4.0,6.3,84,0.00,,---,0.00,VWS V14.00,2013-07-05 12:41:00,
2013-07-05 08:46:00,79.0,73.4,30.03,WNW,292,3.4,3.4,83,0.00,,---,0.00,VWS V14.00,2013-07-05 12:46:00,
2013-07-05 08:51:00,79.3,73.4,30.03,WSW,248,3.4,4.9,82,0.00,,---,0.00,VWS V14.00,2013-07-05 12:51:00,
2013-07-05 08:57:00,81.0,73.8,30.03,WNW,292,3.8,5.8,79,0.00,,---,0.00,VWS V14.00,2013-07-05 12:57:00,
2013-07-05 09:02:00,83.7,75.7,30.03,NNW,338,5.6,5.6,77,0.00,,---,0.00,VWS V14.00,2013-07-05 13:02:00,
2013-07-05 09:09:00,83.1,74.0,30.03,NW,315,3.1,4.3,74,0.00,,---,0.00,VWS V14.00,2013-07-05 13:09:00,
2013-07-05 09:14:00,83.1,73.2,30.00,WSW,248,7.2,7.2,72,0.00,,---,0.00,VWS V14.00,2013-07-05 13:14:00,
2013-07-05 09:20:00,83.3,73.3,30.00,WSW,248,2.7,3.6,72,0.00,,---,0.00,VWS V14.00,2013-07-05 13:20:00,
2013-07-05 09:27:00,84.0,74.4,30.00,WSW,248,4.0,4.0,73,0.00,,---,0.00,VWS V14.00,2013-07-05 13:27:00,
2013-07-05 09:32:00,84.2,73.4,30.00,NNW,338,5.4,5.4,70,0.00,,---,0.00,VWS V14.00,2013-07-05 13:32:00,
2013-07-05 09:37:00,83.7,72.4,30.00,West,270,4.7,4.7,69,0.00,,---,0.00,VWS V14.00,2013-07-05 13:37:00,
2013-07-05 09:44:00,83.7,72.8,30.00,West,270,5.4,6.3,70,0.00,,---,0.00,VWS V14.00,2013-07-05 13:44:00,
2013-07-05 09:49:00,84.2,73.4,30.00,West,270,4.3,4.3,70,0.00,,---,0.00,VWS V14.00,2013-07-05 13:49:00,
2013-07-05 09:56:00,84.4,73.1,30.00,WSW,248,2.9,6.0,69,0.00,,---,0.00,VWS V14.00,2013-07-05 13:56:00,
2013-07-05 10:04:00,84.4,72.7,30.00,South,180,4.0,4.0,68,0.00,,---,0.00,VWS V14.00,2013-07-05 14:04:00,
2013-07-05 10:09:00,78.6,75.8,30.00,WSW,248,3.6,3.6,91,0.00,,---,0.00,VWS V14.00,2013-07-05 14:09:00,
2013-07-05 10:15:00,79.5,78.0,30.00,West,270,5.4,5.4,95,0.00,,---,0.00,VWS V14.00,2013-07-05 14:15:00,
2013-07-05 10:21:00,80.6,79.0,30.00,NW,315,3.1,6.3,95,0.00,,---,0.00,VWS V14.00,2013-07-05 14:21:00,
2013-07-05 10:28:00,81.7,80.1,30.00,NW,315,3.4,4.5,95,0.00,,---,0.00,VWS V14.00,2013-07-05 14:28:00,
2013-07-05 10:33:00,82.6,81.0,30.00,WSW,248,5.6,6.9,95,0.00,,---,0.00,VWS V14.00,2013-07-05 14:33:00,
2013-07-05 10:39:00,83.7,81.8,30.00,WNW,292,5.6,5.6,94,0.00,,---,0.00,VWS V14.00,2013-07-05 14:39:00,
2013-07-05 10:45:00,84.9,82.7,30.00,West,270,4.3,4.3,93,0.00,,---,0.00,VWS V14.00,2013-07-05 14:45:00,
2013-07-05 10:50:00,84.4,81.8,30.00,West,270,4.7,6.5,92,0.00,,---,0.00,VWS V14.00,2013-07-05 14:50:00,
2013-07-05 10:55:00,84.9,82.0,30.00,WNW,292,3.8,3.8,91,0.00,,---,0.00,VWS V14.00,2013-07-05 14:55:00,
2013-07-05 11:00:00,86.4,83.1,30.00,WSW,248,3.6,6.0,90,0.00,,---,0.00,VWS V14.00,2013-07-05 15:00:00,
2013-07-05 11:05:00,86.5,82.6,30.00,WSW,248,4.0,4.0,88,0.00,,---,0.00,VWS V14.00,2013-07-05 15:05:00,
2013-07-05 11:11:00,86.7,82.7,30.00,NNW,338,7.4,7.4,88,0.00,,---,0.00,VWS V14.00,2013-07-05 15:11:00,
2013-07-05 11:16:00,87.4,83.4,30.00,West,270,6.3,6.3,88,0.00,,---,0.00,VWS V14.00,2013-07-05 15:16:00,
2013-07-05 11:21:00,87.6,83.3,30.00,WNW,292,6.0,6.0,87,0.00,,---,0.00,VWS V14.00,2013-07-05 15:21:00,
2013-07-05 11:26:00,88.3,83.6,30.00,WSW,248,3.4,4.9,86,0.00,,---,0.00,VWS V14.00,2013-07-05 15:26:00,
2013-07-05 11:31:00,89.1,84.3,30.00,WNW,292,3.1,4.3,86,0.00,,---,0.00,VWS V14.00,2013-07-05 15:31:00,
2013-07-05 11:36:00,90.0,85.6,30.00,South,180,2.9,5.6,87,0.00,,---,0.00,VWS V14.00,2013-07-05 15:36:00,
2013-07-05 11:41:00,90.3,85.9,30.00,WNW,292,6.0,6.3,87,0.00,,---,0.00,VWS V14.00,2013-07-05 15:41:00,
2013-07-05 11:46:00,90.0,85.6,30.00,WSW,248,2.7,3.1,87,0.00,,---,0.00,VWS V14.00,2013-07-05 15:46:00,
2013-07-05 11:51:00,91.2,86.8,29.97,SW,225,4.7,4.7,87,0.00,,---,0.00,VWS V14.00,2013-07-05 15:51:00,
2013-07-05 11:56:00,91.2,85.7,29.97,North,0,2.5,3.6,84,0.00,,---,0.00,VWS V14.00,2013-07-05 15:56:00,
2013-07-05 12:01:00,92.3,87.5,29.97,WSW,248,4.0,4.0,86,0.00,,---,0.00,VWS V14.00,2013-07-05 16:01:00,
2013-07-05 12:06:00,92.3,87.5,29.97,West,270,3.1,3.1,86,0.00,,---,0.00,VWS V14.00,2013-07-05 16:06:00,
2013-07-05 12:11:00,92.8,86.2,29.97,WNW,292,4.3,4.3,81,0.00,,---,0.00,VWS V14.00,2013-07-05 16:11:00,
2013-07-05 12:16:00,93.4,86.7,29.97,WNW,292,6.5,7.6,81,0.00,,---,0.00,VWS V14.00,2013-07-05 16:16:00,
2013-07-05 12:21:00,93.0,85.1,29.97,West,270,4.3,4.3,78,0.00,,---,0.00,VWS V14.00,2013-07-05 16:21:00,
2013-07-05 12:26:00,91.8,85.5,29.97,WSW,248,6.5,6.5,82,0.00,,---,0.00,VWS V14.00,2013-07-05 16:26:00,
2013-07-05 12:31:00,93.4,85.1,29.97,WSW,248,2.2,4.3,77,0.00,,---,0.00,VWS V14.00,2013-07-05 16:31:00,
2013-07-05 12:36:00,94.1,83.3,29.97,SW,225,2.7,3.8,71,0.00,,---,0.00,VWS V14.00,2013-07-05 16:36:00,
2013-07-05 12:42:00,93.9,78.4,29.97,NW,315,4.0,4.0,61,0.00,,---,0.00,VWS V14.00,2013-07-05 16:42:00,
2013-07-05 12:47:00,95.4,79.8,29.97,West,270,5.6,5.6,61,0.00,,---,0.00,VWS V14.00,2013-07-05 16:47:00,
2013-07-05 12:52:00,95.4,78.8,29.97,WSW,248,4.9,4.9,59,0.00,,---,0.00,VWS V14.00,2013-07-05 16:52:00,
2013-07-05 12:57:00,95.9,78.2,29.97,NW,315,7.8,8.1,57,0.00,,---,0.00,VWS V14.00,2013-07-05 16:57:00,
2013-07-05 13:02:00,96.3,79.1,29.97,WNW,292,7.6,7.6,58,0.00,,---,0.00,VWS V14.00,2013-07-05 17:02:00,
2013-07-05 13:07:00,96.1,77.3,29.97,WSW,248,3.6,4.3,55,0.00,,---,0.00,VWS V14.00,2013-07-05 17:07:00,
2013-07-05 13:12:00,95.0,77.4,29.97,NW,315,3.6,3.6,57,0.00,,---,0.00,VWS V14.00,2013-07-05 17:12:00,
2013-07-05 13:17:00,95.2,77.0,29.97,NW,315,2.9,5.6,56,0.00,,---,0.00,VWS V14.00,2013-07-05 17:17:00,
2013-07-05 13:22:00,95.4,76.1,29.97,WNW,292,4.0,4.0,54,0.00,,---,0.00,VWS V14.00,2013-07-05 17:22:00,
2013-07-05 13:27:00,94.6,76.0,29.97,SW,225,2.2,2.2,55,0.00,,---,0.00,VWS V14.00,2013-07-05 17:27:00,
2013-07-05 13:32:00,94.1,74.9,29.97,SSW,202,4.0,4.9,54,0.00,,---,0.00,VWS V14.00,2013-07-05 17:32:00,
2013-07-05 13:37:00,94.8,76.1,29.97,NNE,22,3.1,3.8,55,0.00,,---,0.00,VWS V14.00,2013-07-05 17:37:00,
2013-07-05 13:42:00,94.3,74.5,29.97,West,270,2.9,4.9,53,0.00,,---,0.00,VWS V14.00,2013-07-05 17:42:00,
2013-07-05 13:47:00,93.7,74.6,29.97,West,270,5.6,5.6,54,0.00,,---,0.00,VWS V14.00,2013-07-05 17:47:00,
2013-07-05 13:52:00,93.7,70.5,29.97,NW,315,7.6,7.6,47,0.00,,---,0.00,VWS V14.00,2013-07-05 17:52:00,
2013-07-05 13:57:00,94.3,72.8,29.97,SSW,202,2.9,5.6,50,0.00,,---,0.00,VWS V14.00,2013-07-05 17:57:00,
2013-07-05 14:02:00,93.7,71.7,29.97,West,270,4.3,4.3,49,0.00,,---,0.00,VWS V14.00,2013-07-05 18:02:00,
2013-07-05 14:07:00,95.5,74.5,29.94,SSW,202,2.9,7.6,51,0.00,,---,0.00,VWS V14.00,2013-07-05 18:07:00,
2013-07-05 14:12:00,93.9,72.5,29.94,WSW,248,3.1,5.4,50,0.00,,---,0.00,VWS V14.00,2013-07-05 18:12:00,
2013-07-05 14:17:00,94.3,71.6,29.94,NNW,338,2.7,2.7,48,0.00,,---,0.00,VWS V14.00,2013-07-05 18:17:00,
2013-07-05 14:22:00,94.8,73.3,29.94,NW,315,8.5,8.5,50,0.00,,---,0.00,VWS V14.00,2013-07-05 18:22:00,
2013-07-05 14:27:00,95.0,72.2,29.94,NW,315,5.6,7.4,48,0.00,,---,0.00,VWS V14.00,2013-07-05 18:27:00,
2013-07-05 14:32:00,95.0,69.7,29.94,WNW,292,7.4,13.2,44,0.00,,---,0.00,VWS V14.00,2013-07-05 18:32:00,
2013-07-05 14:37:00,95.4,71.3,29.94,WSW,248,5.6,6.5,46,0.00,,---,0.00,VWS V14.00,2013-07-05 18:37:00,
2013-07-05 14:42:00,95.2,71.2,29.94,WSW,248,3.1,6.0,46,0.00,,---,0.00,VWS V14.00,2013-07-05 18:42:00,
2013-07-05 14:47:00,96.3,72.8,29.94,West,270,4.0,4.3,47,0.00,,---,0.00,VWS V14.00,2013-07-05 18:47:00,
2013-07-05 14:52:00,96.3,72.8,29.94,WNW,292,1.3,2.0,47,0.00,,---,0.00,VWS V14.00,2013-07-05 18:52:00,
2013-07-05 14:57:00,95.2,71.8,29.94,SSW,202,3.6,4.3,47,0.00,,---,0.00,VWS V14.00,2013-07-05 18:57:00,
2013-07-05 15:02:00,95.2,70.5,29.94,WSW,248,6.3,6.3,45,0.00,,---,0.00,VWS V14.00,2013-07-05 19:02:00,
2013-07-05 15:08:00,95.4,70.7,29.94,WSW,248,7.4,7.4,45,0.00,,---,0.00,VWS V14.00,2013-07-05 19:08:00,
2013-07-05 15:13:00,96.1,70.0,29.94,WNW,292,6.3,6.3,43,0.00,,---,0.00,VWS V14.00,2013-07-05 19:13:00,
2013-07-05 15:18:00,95.9,69.1,29.94,WNW,292,9.6,9.6,42,0.00,,---,0.00,VWS V14.00,2013-07-05 19:18:00,
2013-07-05 15:23:00,95.9,67.7,29.94,WNW,292,12.8,12.8,40,0.00,,---,0.00,VWS V14.00,2013-07-05 19:23:00,
2013-07-05 15:28:00,95.9,71.2,29.94,WSW,248,2.9,3.4,45,0.00,,---,0.00,VWS V14.00,2013-07-05 19:28:00,
2013-07-05 15:33:00,95.2,69.2,29.91,WNW,292,6.5,6.5,43,0.00,,---,0.00,VWS V14.00,2013-07-05 19:33:00,
2013-07-05 15:38:00,95.4,70.0,29.91,WSW,248,4.3,4.3,44,0.00,,---,0.00,VWS V14.00,2013-07-05 19:38:00,
2013-07-05 15:43:00,95.4,69.3,29.91,NW,315,7.8,7.8,43,0.00,,---,0.00,VWS V14.00,2013-07-05 19:43:00,
2013-07-05 15:48:00,95.5,70.2,29.91,West,270,4.9,4.9,44,0.00,,---,0.00,VWS V14.00,2013-07-05 19:48:00,
2013-07-05 15:53:00,95.9,69.8,29.91,NNW,338,4.7,6.0,43,0.00,,---,0.00,VWS V14.00,2013-07-05 19:53:00,
2013-07-05 15:54:00,95.7,67.6,29.91,WNW,292,3.4,4.7,40,0.00,,---,0.00,VWS V14.00,2013-07-05 19:54:00,
2013-07-05 15:59:00,95.9,69.8,29.91,WSW,248,6.5,9.8,43,0.00,,---,0.00,VWS V14.00,2013-07-05 19:59:00,
2013-07-05 16:05:00,95.2,69.2,29.91,West,270,7.6,7.6,43,0.00,,---,0.00,VWS V14.00,2013-07-05 20:05:00,
2013-07-05 16:10:00,94.3,69.0,29.91,West,270,5.4,5.4,44,0.00,,---,0.00,VWS V14.00,2013-07-05 20:10:00,
2013-07-05 16:15:00,93.9,68.7,29.91,West,270,2.9,13.0,44,0.00,,---,0.00,VWS V14.00,2013-07-05 20:15:00,
2013-07-05 16:20:00,93.0,69.2,29.91,SW,225,6.3,9.6,46,0.00,,---,0.00,VWS V14.00,2013-07-05 20:20:00,
2013-07-05 16:25:00,91.9,68.2,29.91,SSW,202,2.2,2.9,46,0.00,,---,0.00,VWS V14.00,2013-07-05 20:25:00,
2013-07-05 16:30:00,93.4,68.9,29.91,WNW,292,6.3,10.7,45,0.00,,---,0.00,VWS V14.00,2013-07-05 20:30:00,
2013-07-05 16:36:00,93.6,68.4,29.91,WNW,292,5.8,7.8,44,0.00,,---,0.00,VWS V14.00,2013-07-05 20:36:00,
2013-07-05 16:41:00,93.6,67.7,29.91,WNW,292,4.3,4.9,43,0.00,,---,0.00,VWS V14.00,2013-07-05 20:41:00,
2013-07-05 16:46:00,93.6,69.0,29.91,WSW,248,1.6,3.8,45,0.00,,---,0.00,VWS V14.00,2013-07-05 20:46:00,
2013-07-05 16:51:00,93.6,69.0,29.91,West,270,3.1,5.4,45,0.00,,---,0.00,VWS V14.00,2013-07-05 20:51:00,
2013-07-05 16:52:00,93.6,69.0,29.91,NNW,338,4.0,4.0,45,0.00,,---,0.00,VWS V14.00,2013-07-05 20:52:00,
2013-07-05 16:57:00,92.1,67.7,29.91,SW,225,2.7,4.7,45,0.00,,---,0.00,VWS V14.00,2013-07-05 20:57:00,
2013-07-05 17:02:00,93.0,69.8,29.91,SSW,202,5.6,5.6,47,0.00,,---,0.00,VWS V14.00,2013-07-05 21:02:00,
2013-07-05 17:07:00,93.0,68.6,29.91,WSW,248,6.5,6.5,45,0.00,,---,0.00,VWS V14.00,2013-07-05 21:07:00,
2013-07-05 17:12:00,93.2,69.4,29.91,WSW,248,7.8,7.8,46,0.00,,---,0.00,VWS V14.00,2013-07-05 21:12:00,
2013-07-05 17:18:00,92.8,69.0,29.88,SSW,202,7.6,7.6,46,0.00,,---,0.00,VWS V14.00,2013-07-05 21:18:00,
2013-07-05 17:23:00,91.9,68.2,29.88,WSW,248,2.7,3.6,46,0.00,,---,0.00,VWS V14.00,2013-07-05 21:23:00,
2013-07-05 17:28:00,91.6,67.9,29.88,WNW,292,4.3,4.3,46,0.00,,---,0.00,VWS V14.00,2013-07-05 21:28:00,
2013-07-05 17:33:00,91.8,68.7,29.88,NNE,22,4.0,7.6,47,0.00,,---,0.00,VWS V14.00,2013-07-05 21:33:00,
2013-07-05 17:38:00,91.4,68.3,29.88,NW,315,4.0,6.0,47,0.00,,---,0.00,VWS V14.00,2013-07-05 21:38:00,
2013-07-05 17:43:00,91.0,68.0,29.88,North,0,10.3,10.3,47,0.00,,---,0.00,VWS V14.00,2013-07-05 21:43:00,
2013-07-05 17:48:00,90.7,68.9,29.88,WSW,248,7.8,7.8,49,0.00,,---,0.00,VWS V14.00,2013-07-05 21:48:00,
2013-07-05 17:53:00,90.3,68.0,29.88,ENE,68,3.1,5.4,48,0.00,,---,0.00,VWS V14.00,2013-07-05 21:53:00,
2013-07-05 17:58:00,90.7,67.7,29.88,WSW,248,5.4,8.1,47,0.00,,---,0.00,VWS V14.00,2013-07-05 21:58:00,
2013-07-05 18:03:00,91.0,68.6,29.88,WNW,292,10.3,10.3,48,0.00,,---,0.00,VWS V14.00,2013-07-05 22:03:00,
2013-07-05 18:06:00,90.9,67.9,29.88,WNW,292,6.0,6.0,47,0.00,,---,0.00,VWS V14.00,2013-07-05 22:06:00,
2013-07-05 18:11:00,90.5,68.2,29.88,SW,225,3.1,4.3,48,0.00,,---,0.00,VWS V14.00,2013-07-05 22:11:00,
2013-07-05 18:16:00,90.0,68.2,29.88,WSW,248,6.0,6.0,49,0.00,,---,0.00,VWS V14.00,2013-07-05 22:16:00,
2013-07-05 18:21:00,90.5,68.2,29.88,WNW,292,7.2,7.2,48,0.00,,---,0.00,VWS V14.00,2013-07-05 22:21:00,
2013-07-05 18:27:00,90.9,68.5,29.88,WNW,292,6.5,6.5,48,0.00,,---,0.00,VWS V14.00,2013-07-05 22:27:00,
2013-07-05 18:32:00,90.9,68.5,29.88,WSW,248,4.7,5.4,48,0.00,,---,0.00,VWS V14.00,2013-07-05 22:32:00,
2013-07-05 18:37:00,90.5,68.2,29.88,WSW,248,6.3,8.1,48,0.00,,---,0.00,VWS V14.00,2013-07-05 22:37:00,
2013-07-05 18:42:00,90.3,68.0,29.88,WNW,292,4.9,4.9,48,0.00,,---,0.00,VWS V14.00,2013-07-05 22:42:00,
2013-07-05 18:47:00,90.3,68.6,29.88,SSW,202,5.6,5.6,49,0.00,,---,0.00,VWS V14.00,2013-07-05 22:47:00,
2013-07-05 18:52:00,90.3,68.6,29.88,WNW,292,4.9,4.9,49,0.00,,---,0.00,VWS V14.00,2013-07-05 22:52:00,
2013-07-05 18:57:00,89.8,67.5,29.88,SW,225,3.1,8.5,48,0.00,,---,0.00,VWS V14.00,2013-07-05 22:57:00,
2013-07-05 19:03:00,89.8,68.1,29.88,West,270,2.2,3.1,49,0.00,,---,0.00,VWS V14.00,2013-07-05 23:03:00,
2013-07-05 19:08:00,89.6,68.5,29.88,WNW,292,6.0,6.0,50,0.00,,---,0.00,VWS V14.00,2013-07-05 23:08:00,
2013-07-05 19:13:00,89.4,68.3,29.88,WSW,248,2.0,5.8,50,0.00,,---,0.00,VWS V14.00,2013-07-05 23:13:00,
2013-07-05 19:18:00,89.2,68.8,29.88,SSW,202,1.6,1.6,51,0.00,,---,0.00,VWS V14.00,2013-07-05 23:18:00,
2013-07-05 19:23:00,88.9,70.1,29.88,West,270,2.0,2.9,54,0.00,,---,0.00,VWS V14.00,2013-07-05 23:23:00,
2013-07-05 19:29:00,88.5,71.3,29.88,SSW,202,1.6,3.4,57,0.00,,---,0.00,VWS V14.00,2013-07-05 23:29:00,
2013-07-05 19:34:00,88.2,71.0,29.88,West,270,3.8,3.8,57,0.00,,---,0.00,VWS V14.00,2013-07-05 23:34:00,
2013-07-05 19:39:00,87.8,71.2,29.88,SSW,202,1.3,2.2,58,0.00,,---,0.00,VWS V14.00,2013-07-05 23:39:00,
2013-07-05 19:44:00,87.4,71.4,29.88,SW,225,2.2,2.2,59,0.00,,---,0.00,VWS V14.00,2013-07-05 23:44:00,
2013-07-05 19:49:00,87.1,71.0,29.88,SW,225,0.0,1.1,59,0.00,,---,0.00,VWS V14.00,2013-07-05 23:49:00,
2013-07-05 19:55:00,86.7,71.2,29.88,SSW,202,1.1,1.6,60,0.00,,---,0.00,VWS V14.00,2013-07-05 23:55:00,
2013-07-05 20:00:00,86.0,71.0,29.88,SSW,202,1.3,1.3,61,0.00,,---,0.00,VWS V14.00,2013-07-06 00:00:00,
2013-07-05 20:05:00,85.5,71.0,29.88,SSW,202,2.0,2.2,62,0.00,,---,0.00,VWS V14.00,2013-07-06 00:05:00,
2013-07-05 20:10:00,85.1,71.1,29.88,South,180,1.3,1.3,63,0.00,,---,0.00,VWS V14.00,2013-07-06 00:10:00,
2013-07-05 20:15:00,84.7,70.8,29.88,South,180,0.0,1.1,63,0.00,,---,0.00,VWS V14.00,2013-07-06 00:15:00,
2013-07-05 20:20:00,84.4,70.9,29.88,South,180,1.3,1.3,64,0.00,,---,0.00,VWS V14.00,2013-07-06 00:20:00,
2013-07-05 20:25:00,84.0,71.0,29.88,SSW,202,0.9,0.9,65,0.00,,---,0.00,VWS V14.00,2013-07-06 00:25:00,
2013-07-05 20:30:00,83.8,70.8,29.88,SSW,202,1.1,1.6,65,0.00,,---,0.00,VWS V14.00,2013-07-06 00:30:00,
2013-07-05 20:35:00,83.5,70.9,29.88,SSW,202,1.3,2.5,66,0.00,,---,0.00,VWS V14.00,2013-07-06 00:35:00,
2013-07-05 20:40:00,83.3,70.8,29.88,SW,225,2.2,2.2,66,0.00,,---,0.00,VWS V14.00,2013-07-06 00:40:00,
2013-07-05 20:46:00,82.9,70.4,29.88,SSW,202,1.1,2.5,66,0.00,,---,0.00,VWS V14.00,2013-07-06 00:46:00,
2013-07-05 20:51:00,82.8,70.2,29.88,WNW,292,2.0,2.5,66,0.00,,---,0.00,VWS V14.00,2013-07-06 00:51:00,
2013-07-05 20:56:00,82.4,70.3,29.88,South,180,1.6,2.5,67,0.00,,---,0.00,VWS V14.00,2013-07-06 00:56:00,
2013-07-05 21:02:00,82.2,70.2,29.88,WNW,292,4.9,4.9,67,0.00,,---,0.00,VWS V14.00,2013-07-06 01:02:00,
2013-07-05 21:07:00,82.0,70.0,29.88,WSW,248,2.0,2.0,67,0.00,,---,0.00,VWS V14.00,2013-07-06 01:07:00,
2013-07-05 21:12:00,81.9,70.3,29.91,WSW,248,3.8,4.0,68,0.00,,---,0.00,VWS V14.00,2013-07-06 01:12:00,
2013-07-05 21:17:00,81.7,70.1,29.91,SW,225,1.6,5.8,68,0.00,,---,0.00,VWS V14.00,2013-07-06 01:17:00,
2013-07-05 21:22:00,81.5,69.9,29.91,SSW,202,1.1,1.6,68,0.00,,---,0.00,VWS V14.00,2013-07-06 01:22:00,
2013-07-05 21:28:00,81.3,69.8,29.91,SSW,202,1.6,4.0,68,0.00,,---,0.00,VWS V14.00,2013-07-06 01:28:00,
2013-07-05 21:33:00,81.1,69.6,29.91,WSW,248,2.0,2.0,68,0.00,,---,0.00,VWS V14.00,2013-07-06 01:33:00,
2013-07-05 21:39:00,81.1,70.0,29.91,WSW,248,1.3,3.6,69,0.00,,---,0.00,VWS V14.00,2013-07-06 01:39:00,
2013-07-05 21:44:00,81.0,69.8,29.91,WSW,248,2.7,2.7,69,0.00,,---,0.00,VWS V14.00,2013-07-06 01:44:00,
2013-07-05 21:49:00,80.8,69.7,29.91,WSW,248,4.0,4.0,69,0.00,,---,0.00,VWS V14.00,2013-07-06 01:49:00,
2013-07-05 21:54:00,80.6,69.5,29.91,WNW,292,3.6,3.6,69,0.00,,---,0.00,VWS V14.00,2013-07-06 01:54:00,
2013-07-05 21:59:00,80.4,70.2,29.91,WSW,248,3.6,3.6,71,0.00,,---,0.00,VWS V14.00,2013-07-06 01:59:00,
2013-07-05 22:04:00,80.4,69.8,29.91,WSW,248,2.9,2.9,70,0.00,,---,0.00,VWS V14.00,2013-07-06 02:04:00,
2013-07-05 22:09:00,80.2,70.0,29.91,WSW,248,1.3,3.6,71,0.00,,---,0.00,VWS V14.00,2013-07-06 02:09:00,
2013-07-05 22:15:00,80.1,69.8,29.91,WSW,248,3.8,3.8,71,0.00,,---,0.00,VWS V14.00,2013-07-06 02:15:00,
2013-07-05 22:20:00,79.9,69.6,29.91,WSW,248,3.8,3.8,71,0.00,,---,0.00,VWS V14.00,2013-07-06 02:20:00,
2013-07-05 22:25:00,79.9,69.6,29.91,WSW,248,5.6,6.7,71,0.00,,---,0.00,VWS V14.00,2013-07-06 02:25:00,
2013-07-05 22:30:00,79.9,70.1,29.91,West,270,7.4,7.4,72,0.00,,---,0.00,VWS V14.00,2013-07-06 02:30:00,
2013-07-05 22:36:00,79.5,69.7,29.91,WSW,248,2.9,2.9,72,0.00,,---,0.00,VWS V14.00,2013-07-06 02:36:00,
2013-07-05 22:41:00,79.5,69.7,29.91,WNW,292,6.3,6.3,72,0.00,,---,0.00,VWS V14.00,2013-07-06 02:41:00,
2013-07-05 22:46:00,79.5,69.7,29.91,WSW,248,3.1,3.1,72,0.00,,---,0.00,VWS V14.00,2013-07-06 02:46:00,
2013-07-05 22:51:00,79.3,69.9,29.91,SW,225,5.4,5.4,73,0.00,,---,0.00,VWS V14.00,2013-07-06 02:51:00,
2013-07-05 22:56:00,79.2,69.8,29.91,WNW,292,6.5,6.5,73,0.00,,---,0.00,VWS V14.00,2013-07-06 02:56:00,
2013-07-05 23:01:00,79.0,69.6,29.91,SSW,202,2.9,2.9,73,0.00,,---,0.00,VWS V14.00,2013-07-06 03:01:00,
2013-07-05 23:03:00,79.0,69.6,29.91,WSW,248,4.0,4.0,73,0.00,,---,0.00,VWS V14.00,2013-07-06 03:03:00,
2013-07-05 23:08:00,79.0,69.6,29.91,WSW,248,2.5,2.5,73,0.00,,---,0.00,VWS V14.00,2013-07-06 03:08:00,
2013-07-05 23:13:00,78.8,69.8,29.91,WNW,292,4.7,4.7,74,0.00,,---,0.00,VWS V14.00,2013-07-06 03:13:00,
2013-07-05 23:18:00,78.6,69.7,29.91,West,270,4.3,4.3,74,0.00,,---,0.00,VWS V14.00,2013-07-06 03:18:00,
2013-07-05 23:23:00,78.6,70.0,29.91,West,270,2.5,2.5,75,0.00,,---,0.00,VWS V14.00,2013-07-06 03:23:00,
2013-07-05 23:28:00,78.4,69.9,29.91,WSW,248,5.6,5.6,75,0.00,,---,0.00,VWS V14.00,2013-07-06 03:28:00,
2013-07-05 23:31:00,78.4,69.9,29.91,West,270,2.9,3.6,75,0.00,,---,0.00,VWS V14.00,2013-07-06 03:31:00,
2013-07-05 23:37:00,78.4,69.9,29.94,WSW,248,7.6,7.6,75,0.00,,---,0.00,VWS V14.00,2013-07-06 03:37:00,
2013-07-05 23:42:00,78.3,69.7,29.94,WSW,248,4.3,4.3,75,0.00,,---,0.00,VWS V14.00,2013-07-06 03:42:00,
2013-07-05 23:48:00,78.1,69.9,29.94,WSW,248,3.4,4.7,76,0.00,,---,0.00,VWS V14.00,2013-07-06 03:48:00,
2013-07-05 23:53:00,78.1,69.9,29.94,WSW,248,2.9,2.9,76,0.00,,---,0.00,VWS V14.00,2013-07-06 03:53:00,
2013-07-05 23:58:00,78.1,69.9,29.94,West,270,2.7,3.4,76,0.00,,---,0.00,VWS V14.00,2013-07-06 03:58:00,